Regional Weather Roundup
Issued by NWS

Home | Current Version | Previous Version | Graphics & Text | Print | Product List | Glossary On
Versions: 1 2 3 4 5 6 7 8 9 10 11 12 13 14 15 16 17 18 19 20 21 22 23 24 25 26 27 28 29 30 31 32 33 34 35 36 37 38 39 40 41 42 43 44 45 46 47 48 49 50
000
ASUS45 KCYS 181510
RWRWY

WYOMING REGIONAL WEATHER ROUNDUP
NATIONAL WEATHER SERVICE CHEYENNE WY
900 AM MDT THU SEP 18 2014

NOTE:  "FAIR" INDICATES FEW OR NO CLOUDS BELOW 12,000 FEET
WITH NO SIGNIFICANT WEATHER AND/OR OBSTRUCTIONS TO VISIBILITY.

WYZ001-181600-
YELLOWSTONE NATIONAL PARK

CITY           SKY/WX    TMP DP  RH WIND       PRES   REMARKS
LK YELLOWSTONE   N/A     47  45  93 CALM      30.18F
W YELLOWSTONE  NOT AVBL

$$
WYZ002>013-054>058-071-098>099-181600-
NORTHERN WYOMING

CITY           SKY/WX    TMP DP  RH WIND       PRES   REMARKS
JACKSON        MOSUNNY   52  43  71 CALM      30.08
CODY             N/A    N/A N/A N/A MISG        N/A
GREYBULL       PTSUNNY   60  49  66 NE5       29.88F
WORLAND        MOSUNNY   63  47  55 W3        29.89S
SHERIDAN       PTSUNNY   64  48  56 CALM      29.83S
BUFFALO        MOSUNNY   66  45  46 SE5       29.90F
GILLETTE       MOSUNNY   70  50  49 SE9       29.89S
HULETT         FAIR      64  50  59 MISG      29.90
NEWCASTLE      FAIR      61  50  67 CALM      29.95

$$
WYZ014>020-022>026-101>103-181600-
CENTRAL WYOMING

CITY           SKY/WX    TMP DP  RH WIND       PRES   REMARKS
BIG PINEY      MOSUNNY   50  41  71 CALM      30.15S
PINEDALE       MOSUNNY   52  39  62 CALM      30.15S
DUBOIS         FAIR      50  37  62 NW5       30.11S
LANDER         MOSUNNY   58  45  62 CALM      30.00S
RIVERTON       PTSUNNY   59  41  51 CALM      30.01F
CASPER         MOSUNNY   67  39  35 SW14      30.00S
DOUGLAS        SUNNY     59  41  51 CALM      30.00S

$$
WYZ021-027>030-104>119-181600-
SOUTHERN WYOMING

CITY           SKY/WX    TMP DP  RH WIND       PRES   REMARKS
EVANSTON       SUNNY     64  39  39 S7        30.13F
KEMMERER       SUNNY     55  39  54 N3        30.15S
FORT BRIDGER   FAIR      63  39  40 CALM      30.16S
ROCK SPRINGS   SUNNY     57  35  43 E3        30.13R
DIXON          FAIR      58  43  56 SE5       30.18R
RAWLINS        SUNNY     57  39  51 CALM      30.15R
SARATOGA       FAIR      61  37  41 SE15      30.17S
LARAMIE        SUNNY     59  38  45 SW8       30.18S
CHEYENNE       SUNNY     69  41  36 W6        30.10S
TORRINGTON     FOG       51  51 100 SE3       29.97R VSB 1/4
PINE BLUFFS    FAIR      64  45  48 S3        30.04S

$$



USA.gov is the U.S. government's official web portal to all federal, state and local government web resources and services.